Time,TemperatureF,DewpointF,PressureIn,WindDirection,WindDirectionDegrees,WindSpeedMPH,WindSpeedGustMPH,Humidity,HourlyPrecipIn,Conditions,Clouds,dailyrainin,SoftwareType,DateUTC
2013-09-06 02:41:00,81.8,44.5,29.68,South,180,0.0,-999.0,27,0.00,,,0.00,Wunderground v.1.15,2013-09-06 09:41:00,
2013-09-06 02:46:00,82.2,44.9,29.68,SSW,203,0.0,-999.0,27,0.00,,,0.00,Wunderground v.1.15,2013-09-06 09:46:00,
2013-09-06 02:51:00,82.2,45.8,29.68,SSW,203,0.0,-999.0,28,0.00,,,0.00,Wunderground v.1.15,2013-09-06 09:51:00,
2013-09-06 02:56:00,82.2,45.8,29.68,SSW,203,0.0,-999.0,28,0.00,,,0.00,Wunderground v.1.15,2013-09-06 09:56:00,
2013-09-06 03:01:00,82.0,45.7,29.68,SSW,203,1.0,-999.0,28,0.00,,,0.00,Wunderground v.1.15,2013-09-06 10:01:00,
2013-09-06 03:06:00,81.8,45.5,29.68,SSW,203,1.0,-999.0,28,0.00,,,0.00,Wunderground v.1.15,2013-09-06 10:06:00,
2013-09-06 03:11:00,82.0,45.7,29.68,SSW,203,0.0,-999.0,28,0.00,,,0.00,Wunderground v.1.15,2013-09-06 10:11:00,
2013-09-06 03:16:00,82.0,45.7,29.68,SSW,203,0.0,-999.0,28,0.00,,,0.00,Wunderground v.1.15,2013-09-06 10:16:00,
2013-09-06 03:21:00,82.0,45.7,29.68,SSW,203,0.0,-999.0,28,0.00,,,0.00,Wunderground v.1.15,2013-09-06 10:21:00,
2013-09-06 03:26:00,82.0,44.7,29.68,SSW,203,0.0,-999.0,27,0.00,,,0.00,Wunderground v.1.15,2013-09-06 10:26:00,
2013-09-06 03:31:00,82.2,44.9,29.68,SSW,203,0.0,-999.0,27,0.00,,,0.00,Wunderground v.1.15,2013-09-06 10:31:00,
2013-09-06 03:36:00,82.2,44.9,29.68,SSW,203,0.0,-999.0,27,0.00,,,0.00,Wunderground v.1.15,2013-09-06 10:36:00,
2013-09-06 03:41:00,82.4,45.1,29.68,SSW,203,0.0,-999.0,27,0.00,,,0.00,Wunderground v.1.15,2013-09-06 10:41:00,
2013-09-06 03:46:00,82.4,45.1,29.68,SW,225,0.0,-999.0,27,0.00,,,0.00,Wunderground v.1.15,2013-09-06 10:46:00,
2013-09-06 03:51:00,82.0,44.7,29.68,SSW,203,0.0,-999.0,27,0.00,,,0.00,Wunderground v.1.15,2013-09-06 10:51:00,
2013-09-06 03:56:00,81.6,44.4,29.68,SSW,203,0.0,-999.0,27,0.00,,,0.00,Wunderground v.1.15,2013-09-06 10:56:00,
2013-09-06 04:01:00,81.2,45.9,29.68,South,180,0.0,-999.0,29,0.00,,,0.00,Wunderground v.1.15,2013-09-06 11:01:00,
2013-09-06 04:06:00,80.7,45.5,29.68,SSW,203,0.0,-999.0,29,0.00,,,0.00,Wunderground v.1.15,2013-09-06 11:06:00,
2013-09-06 04:11:00,80.7,44.6,29.68,SSW,203,0.0,-999.0,28,0.00,,,0.00,Wunderground v.1.15,2013-09-06 11:11:00,
2013-09-06 04:16:00,80.7,46.4,29.68,SSW,203,0.0,-999.0,30,0.00,,,0.00,Wunderground v.1.15,2013-09-06 11:16:00,
2013-09-06 04:21:00,80.5,45.3,29.68,N/A,-737280,0.0,-999.0,29,0.00,,,0.00,Wunderground v.1.15,2013-09-06 11:21:00,
2013-09-06 04:26:00,80.1,45.0,29.68,N/A,-737280,0.0,-999.0,29,0.00,,,0.00,Wunderground v.1.15,2013-09-06 11:26:00,
2013-09-06 04:31:00,80.1,44.0,29.68,SSW,203,0.0,-999.0,28,0.00,,,0.00,Wunderground v.1.15,2013-09-06 11:31:00,
2013-09-06 04:36:00,80.3,43.3,29.68,N/A,-737280,0.0,-999.0,27,0.00,,,0.00,Wunderground v.1.15,2013-09-06 11:36:00,
2013-09-06 04:41:00,80.5,44.4,29.68,SW,225,0.0,-999.0,28,0.00,,,0.00,Wunderground v.1.15,2013-09-06 11:41:00,
2013-09-06 04:46:00,80.5,43.4,29.68,SW,225,0.0,-999.0,27,0.00,,,0.00,Wunderground v.1.15,2013-09-06 11:46:00,
2013-09-06 04:51:00,80.3,43.3,29.68,SW,225,0.0,-999.0,27,0.00,,,0.00,Wunderground v.1.15,2013-09-06 11:51:00,
2013-09-06 04:56:00,80.1,45.0,29.68,SW,225,0.0,-999.0,29,0.00,,,0.00,Wunderground v.1.15,2013-09-06 11:56:00,
2013-09-06 05:01:00,79.8,45.6,29.68,SSW,203,0.0,-999.0,30,0.00,,,0.00,Wunderground v.1.15,2013-09-06 12:01:00,
2013-09-06 05:06:00,79.4,45.3,29.68,N/A,-737280,0.0,-999.0,30,0.00,,,0.00,Wunderground v.1.15,2013-09-06 12:06:00,
2013-09-06 05:11:00,79.4,45.3,29.68,N/A,-737280,0.0,-999.0,30,0.00,,,0.00,Wunderground v.1.15,2013-09-06 12:11:00,
2013-09-06 05:16:00,79.4,44.4,29.68,SSW,203,0.0,-999.0,29,0.00,,,0.00,Wunderground v.1.15,2013-09-06 12:16:00,
2013-09-06 05:21:00,79.6,44.5,29.68,SSW,203,0.0,-999.0,29,0.00,,,0.00,Wunderground v.1.15,2013-09-06 12:21:00,
2013-09-06 05:26:00,79.6,44.5,29.68,SSW,203,0.0,-999.0,29,0.00,,,0.00,Wunderground v.1.15,2013-09-06 12:26:00,
2013-09-06 05:31:00,79.8,44.7,29.68,SSW,203,0.0,-999.0,29,0.00,,,0.00,Wunderground v.1.15,2013-09-06 12:31:00,
2013-09-06 05:36:00,79.8,44.7,29.68,WSW,248,0.0,-999.0,29,0.00,,,0.00,Wunderground v.1.15,2013-09-06 12:36:00,
2013-09-06 05:41:00,79.8,44.7,29.68,N/A,-737280,0.0,-999.0,29,0.00,,,0.00,Wunderground v.1.15,2013-09-06 12:41:00,
2013-09-06 05:46:00,79.8,44.7,29.68,SSW,203,0.0,-999.0,29,0.00,,,0.00,Wunderground v.1.15,2013-09-06 12:46:00,
2013-09-06 05:51:00,79.8,44.7,29.68,SW,225,0.0,-999.0,29,0.00,,,0.00,Wunderground v.1.15,2013-09-06 12:51:00,
2013-09-06 05:56:00,79.8,44.7,29.68,SW,225,0.0,-999.0,29,0.00,,,0.00,Wunderground v.1.15,2013-09-06 12:56:00,
2013-09-06 06:01:00,79.6,44.5,29.69,N/A,-737280,0.0,-999.0,29,0.00,,,0.00,Wunderground v.1.15,2013-09-06 13:01:00,
2013-09-06 06:06:00,79.4,44.4,29.69,N/A,-737280,0.0,-999.0,29,0.00,,,0.00,Wunderground v.1.15,2013-09-06 13:06:00,
2013-09-06 06:11:00,79.0,44.0,29.69,N/A,-737280,0.0,-999.0,29,0.00,,,0.00,Wunderground v.1.15,2013-09-06 13:11:00,
2013-09-06 06:16:00,78.8,43.8,29.69,N/A,-737280,0.0,-999.0,29,0.00,,,0.00,Wunderground v.1.15,2013-09-06 13:16:00,
2013-09-06 06:21:00,78.6,44.6,29.69,N/A,-737280,0.0,-999.0,30,0.00,,,0.00,Wunderground v.1.15,2013-09-06 13:21:00,
2013-09-06 06:26:00,78.5,44.5,29.69,N/A,-737280,0.0,-999.0,30,0.00,,,0.00,Wunderground v.1.15,2013-09-06 13:26:00,
2013-09-06 06:31:00,78.5,44.5,29.70,SSW,203,0.0,-999.0,30,0.00,,,0.00,Wunderground v.1.15,2013-09-06 13:31:00,
2013-09-06 06:42:00,79.0,44.0,29.70,SSW,207,0.0,0.0,29,0.00,,,0.00,Wunderground v.1.15,2013-09-06 13:42:00,
2013-09-06 06:45:00,79.0,44.0,29.70,SSW,206,0.0,0.0,29,0.00,,,0.00,Wunderground v.1.15,2013-09-06 13:45:00,
2013-09-06 06:50:00,79.2,44.2,29.70,SSW,211,0.0,0.0,29,0.00,,,0.00,Wunderground v.1.15,2013-09-06 13:50:00,
2013-09-06 06:55:00,79.6,44.5,29.70,SSW,211,0.0,0.0,29,0.00,,,0.00,Wunderground v.1.15,2013-09-06 13:55:00,
2013-09-06 07:00:00,79.8,45.6,29.70,SSW,192,0.0,0.0,30,0.00,,,0.00,Wunderground v.1.15,2013-09-06 14:00:00,
2013-09-06 07:05:00,80.3,45.1,29.70,SW,217,0.0,0.0,29,0.00,,,0.00,Wunderground v.1.15,2013-09-06 14:05:00,
2013-09-06 07:10:00,80.7,44.6,29.70,SW,231,0.0,0.0,28,0.00,,,0.00,Wunderground v.1.15,2013-09-06 14:10:00,
2013-09-06 07:15:00,81.2,45.9,29.71,WSW,242,0.0,0.0,29,0.00,,,0.00,Wunderground v.1.15,2013-09-06 14:15:00,
2013-09-06 07:25:00,80.3,43.3,29.71,North,351,0.0,0.0,27,0.00,,,0.00,Wunderground v.1.15,2013-09-06 14:25:00,
2013-09-06 07:30:00,80.1,44.0,29.72,North,351,0.0,0.0,28,0.00,,,0.00,Wunderground v.1.15,2013-09-06 14:30:00,
2013-09-06 07:40:00,79.9,44.8,29.72,ENE,66,0.0,0.0,29,0.00,,,0.00,Wunderground v.1.15,2013-09-06 14:40:00,
2013-09-06 07:45:00,79.6,45.4,29.72,ENE,74,0.0,0.0,30,0.00,,,0.00,Wunderground v.1.15,2013-09-06 14:45:00,
2013-09-06 07:50:00,79.4,45.3,29.72,ENE,63,1.0,1.0,30,0.00,,,0.00,Wunderground v.1.15,2013-09-06 14:50:00,
2013-09-06 07:55:00,80.1,45.0,29.72,ENE,70,0.0,1.0,29,0.00,,,0.00,Wunderground v.1.15,2013-09-06 14:55:00,
2013-09-06 08:05:00,81.4,45.2,29.72,ENE,65,0.0,0.0,28,0.00,,,0.00,Wunderground v.1.15,2013-09-06 15:05:00,
2013-09-06 08:10:00,81.8,44.5,29.72,ENE,66,0.0,0.0,27,0.00,,,0.00,Wunderground v.1.15,2013-09-06 15:10:00,
2013-09-06 08:15:00,82.6,46.2,29.72,ENE,66,0.0,0.0,28,0.00,,,0.00,Wunderground v.1.15,2013-09-06 15:15:00,
2013-09-06 08:20:00,83.0,45.6,29.72,ENE,66,0.0,0.0,27,0.00,,,0.00,Wunderground v.1.15,2013-09-06 15:20:00,
2013-09-06 08:25:00,83.0,45.6,29.72,ENE,66,0.0,0.0,27,0.00,,,0.00,Wunderground v.1.15,2013-09-06 15:25:00,
2013-09-06 08:30:00,83.4,46.9,29.72,ENE,66,0.0,0.0,28,0.00,,,0.00,Wunderground v.1.15,2013-09-06 15:30:00,
2013-09-06 08:35:00,83.6,47.0,29.72,ENE,66,0.0,0.0,28,0.00,,,0.00,Wunderground v.1.15,2013-09-06 15:35:00,
2013-09-06 08:40:00,83.8,47.2,29.72,ENE,66,0.0,0.0,28,0.00,,,0.00,Wunderground v.1.15,2013-09-06 15:40:00,
2013-09-06 08:45:00,84.0,46.4,29.73,ENE,58,0.0,0.0,27,0.00,,,0.00,Wunderground v.1.15,2013-09-06 15:45:00,
2013-09-06 08:50:00,84.1,46.5,29.73,ENE,58,0.0,0.0,27,0.00,,,0.00,Wunderground v.1.15,2013-09-06 15:50:00,
2013-09-06 08:55:00,84.7,48.0,29.73,ENE,58,0.0,0.0,28,0.00,,,0.00,Wunderground v.1.15,2013-09-06 15:55:00,
2013-09-06 09:05:00,85.9,47.0,29.73,ENE,58,0.0,0.0,26,0.00,,,0.00,Wunderground v.1.15,2013-09-06 16:05:00,
2013-09-06 09:10:00,86.3,47.4,29.73,ENE,58,0.0,0.0,26,0.00,,,0.00,Wunderground v.1.15,2013-09-06 16:10:00,
2013-09-06 09:15:00,87.0,46.9,29.73,ENE,58,0.0,0.0,25,0.00,,,0.00,Wunderground v.1.15,2013-09-06 16:15:00,
2013-09-06 09:20:00,87.4,47.3,29.73,ENE,72,0.0,0.0,25,0.00,,,0.00,Wunderground v.1.15,2013-09-06 16:20:00,
2013-09-06 09:25:00,87.8,47.6,29.73,ENE,74,0.0,0.0,25,0.00,,,0.00,Wunderground v.1.15,2013-09-06 16:25:00,
2013-09-06 09:30:00,88.2,47.9,29.73,ENE,72,0.0,0.0,25,0.00,,,0.00,Wunderground v.1.15,2013-09-06 16:30:00,
2013-09-06 09:35:00,88.4,47.0,29.73,ENE,72,0.0,0.0,24,0.00,,,0.00,Wunderground v.1.15,2013-09-06 16:35:00,
2013-09-06 09:40:00,88.8,47.4,29.73,East,79,0.0,0.0,24,0.00,,,0.00,Wunderground v.1.15,2013-09-06 16:40:00,
2013-09-06 09:45:00,89.3,46.6,29.73,ENE,74,0.0,0.0,23,0.00,,,0.00,Wunderground v.1.15,2013-09-06 16:45:00,
2013-09-06 09:50:00,89.7,47.0,29.73,ENE,74,0.0,0.0,23,0.00,,,0.00,Wunderground v.1.15,2013-09-06 16:50:00,
2013-09-06 10:00:00,90.5,45.2,29.73,East,84,0.0,0.0,21,0.00,,,0.00,Wunderground v.1.15,2013-09-06 17:00:00,
2013-09-06 10:05:00,91.2,45.8,29.73,East,84,0.0,0.0,21,0.00,,,0.00,Wunderground v.1.15,2013-09-06 17:05:00,
2013-09-06 10:10:00,91.4,46.0,29.73,ENE,57,0.0,0.0,21,0.00,,,0.00,Wunderground v.1.15,2013-09-06 17:10:00,
2013-09-06 10:15:00,91.4,46.0,29.72,NE,45,0.0,0.0,21,0.00,,,0.00,Wunderground v.1.15,2013-09-06 17:15:00,
2013-09-06 10:20:00,91.4,46.0,29.72,NNW,332,0.0,0.0,21,0.00,,,0.00,Wunderground v.1.15,2013-09-06 17:20:00,
2013-09-06 10:30:00,92.5,45.6,29.72,WSW,257,1.0,1.0,20,0.00,,,0.00,Wunderground v.1.15,2013-09-06 17:30:00,
2013-09-06 10:35:00,93.4,42.1,29.72,SSW,211,0.0,1.0,17,0.00,,,0.00,Wunderground v.1.15,2013-09-06 17:35:00,
2013-09-06 10:40:00,94.3,44.3,29.72,SSW,197,0.0,3.0,18,0.00,,,0.00,Wunderground v.1.15,2013-09-06 17:40:00,
2013-09-06 10:45:00,94.7,43.1,29.72,SSW,204,0.0,3.0,17,0.00,,,0.00,Wunderground v.1.15,2013-09-06 17:45:00,
2013-09-06 10:50:00,94.9,43.3,29.72,SSW,202,1.0,1.0,17,0.00,,,0.00,Wunderground v.1.15,2013-09-06 17:50:00,
2013-09-06 10:55:00,95.1,43.4,29.72,SSW,209,1.0,1.0,17,0.00,,,0.00,Wunderground v.1.15,2013-09-06 17:55:00,
2013-09-06 11:00:00,95.4,42.1,29.71,SW,226,1.0,1.0,16,0.00,,,0.00,Wunderground v.1.15,2013-09-06 18:00:00,
2013-09-06 11:05:00,95.4,42.1,29.71,SSW,205,1.0,1.0,16,0.00,,,0.00,Wunderground v.1.15,2013-09-06 18:05:00,
2013-09-06 11:15:00,95.9,42.5,29.71,SSW,211,2.0,2.0,16,0.00,,,0.00,Wunderground v.1.15,2013-09-06 18:15:00,
2013-09-06 11:20:00,96.1,42.6,29.71,SW,231,2.0,2.0,16,0.00,,,0.00,Wunderground v.1.15,2013-09-06 18:20:00,
2013-09-06 11:25:00,96.1,45.7,29.71,SW,222,2.0,3.0,18,0.00,,,0.00,Wunderground v.1.15,2013-09-06 18:25:00,
2013-09-06 11:30:00,96.3,41.1,29.71,SW,220,2.0,2.0,15,0.00,,,0.00,Wunderground v.1.15,2013-09-06 18:30:00,
2013-09-06 11:35:00,96.3,42.8,29.71,South,178,3.0,3.0,16,0.00,,,0.00,Wunderground v.1.15,2013-09-06 18:35:00,
2013-09-06 11:40:00,96.3,42.8,29.71,SSW,192,3.0,3.0,16,0.00,,,0.00,Wunderground v.1.15,2013-09-06 18:40:00,
2013-09-06 11:45:00,96.8,43.2,29.71,SW,227,2.0,3.0,16,0.00,,,0.00,Wunderground v.1.15,2013-09-06 18:45:00,
2013-09-06 11:50:00,96.3,42.8,29.71,SW,215,2.0,2.0,16,0.00,,,0.00,Wunderground v.1.15,2013-09-06 18:50:00,
2013-09-06 12:00:00,97.1,43.4,29.70,SW,219,2.0,9.0,16,0.00,,,0.00,Wunderground v.1.15,2013-09-06 19:00:00,
2013-09-06 12:05:00,97.5,42.1,29.70,SSW,194,3.0,9.0,15,0.00,,,0.00,Wunderground v.1.15,2013-09-06 19:05:00,
2013-09-06 12:10:00,97.1,43.4,29.70,SW,228,3.0,3.0,16,0.00,,,0.00,Wunderground v.1.15,2013-09-06 19:10:00,
2013-09-06 12:15:00,97.5,43.8,29.70,SSW,192,2.0,3.0,16,0.00,,,0.00,Wunderground v.1.15,2013-09-06 19:15:00,
2013-09-06 12:20:00,98.0,44.2,29.70,SSW,211,1.0,2.0,16,0.00,,,0.00,Wunderground v.1.15,2013-09-06 19:20:00,
2013-09-06 12:25:00,98.0,42.5,29.70,SW,214,2.0,2.0,15,0.00,,,0.00,Wunderground v.1.15,2013-09-06 19:25:00,
2013-09-06 12:30:00,97.8,42.3,29.69,SE,124,2.0,3.0,15,0.00,,,0.00,Wunderground v.1.15,2013-09-06 19:30:00,
2013-09-06 12:35:00,97.8,44.0,29.69,SSW,200,2.0,6.0,16,0.00,,,0.00,Wunderground v.1.15,2013-09-06 19:35:00,
2013-09-06 12:40:00,98.0,45.8,29.69,SSW,212,2.0,2.0,17,0.00,,,0.00,Wunderground v.1.15,2013-09-06 19:40:00,
2013-09-06 12:45:00,98.2,44.3,29.69,South,185,2.0,6.0,16,0.00,,,0.00,Wunderground v.1.15,2013-09-06 19:45:00,
2013-09-06 12:50:00,98.5,42.9,29.69,SW,221,2.0,2.0,15,0.00,,,0.00,Wunderground v.1.15,2013-09-06 19:50:00,
2013-09-06 12:55:00,98.0,40.7,29.69,SW,217,3.0,6.0,14,0.00,,,0.00,Wunderground v.1.15,2013-09-06 19:55:00,
2013-09-06 13:05:00,97.8,42.3,29.69,South,190,4.0,5.0,15,0.00,,,0.00,Wunderground v.1.15,2013-09-06 20:05:00,
2013-09-06 13:15:00,98.2,42.6,29.68,SSW,200,2.0,6.0,15,0.00,,,0.00,Wunderground v.1.15,2013-09-06 20:15:00,
2013-09-06 13:20:00,98.5,42.9,29.68,SSW,194,4.0,6.0,15,0.00,,,0.00,Wunderground v.1.15,2013-09-06 20:20:00,
2013-09-06 13:25:00,98.5,44.6,29.68,SSW,204,3.0,6.0,16,0.00,,,0.00,Wunderground v.1.15,2013-09-06 20:25:00,
2013-09-06 13:30:00,98.5,41.1,29.67,SSW,202,3.0,7.0,14,0.00,,,0.00,Wunderground v.1.15,2013-09-06 20:30:00,
2013-09-06 13:35:00,98.7,44.7,29.67,SSW,211,4.0,7.0,16,0.00,,,0.00,Wunderground v.1.15,2013-09-06 20:35:00,
2013-09-06 13:40:00,99.4,41.8,29.67,SSW,200,4.0,4.0,14,0.00,,,0.00,Wunderground v.1.15,2013-09-06 20:40:00,
2013-09-06 13:45:00,99.4,43.6,29.67,SSW,207,4.0,9.0,15,0.00,,,0.00,Wunderground v.1.15,2013-09-06 20:45:00,
2013-09-06 13:50:00,98.7,41.2,29.67,SSW,196,5.0,5.0,14,0.00,,,0.00,Wunderground v.1.15,2013-09-06 20:50:00,
2013-09-06 13:55:00,99.4,41.8,29.67,SSW,204,5.0,5.0,14,0.00,,,0.00,Wunderground v.1.15,2013-09-06 20:55:00,
2013-09-06 14:00:00,99.7,42.0,29.66,SSW,207,4.0,4.0,14,0.00,,,0.00,Wunderground v.1.15,2013-09-06 21:00:00,
2013-09-06 14:05:00,99.4,43.6,29.66,South,176,4.0,4.0,15,0.00,,,0.00,Wunderground v.1.15,2013-09-06 21:05:00,
2013-09-06 14:15:00,99.9,42.2,29.65,SSW,212,2.0,3.0,14,0.00,,,0.00,Wunderground v.1.15,2013-09-06 21:15:00,
2013-09-06 14:20:00,100.2,45.9,29.65,SSW,206,1.0,1.0,16,0.00,,,0.00,Wunderground v.1.15,2013-09-06 21:20:00,
2013-09-06 14:25:00,99.9,42.2,29.65,SSW,202,1.0,6.0,14,0.00,,,0.00,Wunderground v.1.15,2013-09-06 21:25:00,
2013-09-06 14:30:00,99.7,43.8,29.64,SE,140,3.0,3.0,15,0.00,,,0.00,Wunderground v.1.15,2013-09-06 21:30:00,
2013-09-06 14:35:00,99.9,42.2,29.64,South,182,2.0,3.0,14,0.00,,,0.00,Wunderground v.1.15,2013-09-06 21:35:00,
2013-09-06 14:40:00,99.7,42.0,29.64,South,182,3.0,10.0,14,0.00,,,0.00,Wunderground v.1.15,2013-09-06 21:40:00,
2013-09-06 14:45:00,99.4,43.6,29.63,SSW,206,5.0,10.0,15,0.00,,,0.00,Wunderground v.1.15,2013-09-06 21:45:00,
2013-09-06 14:50:00,100.2,44.2,29.63,SSW,204,4.0,5.0,15,0.00,,,0.00,Wunderground v.1.15,2013-09-06 21:50:00,
2013-09-06 14:55:00,99.9,44.0,29.63,South,191,3.0,5.0,15,0.00,,,0.00,Wunderground v.1.15,2013-09-06 21:55:00,
2013-09-06 15:00:00,99.9,44.0,29.61,South,189,4.0,4.0,15,0.00,,,0.00,Wunderground v.1.15,2013-09-06 22:00:00,
2013-09-06 15:05:00,99.9,44.0,29.61,SSE,161,3.0,4.0,15,0.00,,,0.00,Wunderground v.1.15,2013-09-06 22:05:00,
2013-09-06 15:10:00,100.2,44.2,29.61,SSW,213,2.0,7.0,15,0.00,,,0.00,Wunderground v.1.15,2013-09-06 22:10:00,
2013-09-06 15:15:00,100.7,46.3,29.61,SSW,209,3.0,7.0,16,0.00,,,0.00,Wunderground v.1.15,2013-09-06 22:15:00,
2013-09-06 15:20:00,100.7,44.6,29.61,South,175,3.0,3.0,15,0.00,,,0.00,Wunderground v.1.15,2013-09-06 22:20:00,
2013-09-06 15:25:00,101.0,44.9,29.61,SSW,192,2.0,3.0,15,0.00,,,0.00,Wunderground v.1.15,2013-09-06 22:25:00,
2013-09-06 15:30:00,101.0,43.0,29.60,South,188,3.0,3.0,14,0.00,,,0.00,Wunderground v.1.15,2013-09-06 22:30:00,
2013-09-06 15:35:00,100.4,46.1,29.60,SSW,202,4.0,4.0,16,0.00,,,0.00,Wunderground v.1.15,2013-09-06 22:35:00,
2013-09-06 15:40:00,100.7,42.8,29.60,WSW,237,4.0,4.0,14,0.00,,,0.00,Wunderground v.1.15,2013-09-06 22:40:00,
2013-09-06 15:45:00,101.0,43.0,29.60,West,269,4.0,4.0,14,0.00,,,0.00,Wunderground v.1.15,2013-09-06 22:45:00,
2013-09-06 15:50:00,101.0,43.0,29.60,SSW,199,2.0,5.0,14,0.00,,,0.00,Wunderground v.1.15,2013-09-06 22:50:00,
2013-09-06 15:55:00,101.0,43.0,29.60,SSW,205,3.0,5.0,14,0.00,,,0.00,Wunderground v.1.15,2013-09-06 22:55:00,
2013-09-06 16:00:00,101.2,43.2,29.59,SSW,202,4.0,12.0,14,0.00,,,0.00,Wunderground v.1.15,2013-09-06 23:00:00,
2013-09-06 16:05:00,101.0,43.0,29.59,SSW,204,4.0,12.0,14,0.00,,,0.00,Wunderground v.1.15,2013-09-06 23:05:00,
2013-09-06 16:10:00,101.0,46.6,29.59,WSW,242,4.0,4.0,16,0.00,,,0.00,Wunderground v.1.15,2013-09-06 23:10:00,
2013-09-06 16:15:00,101.5,43.4,29.59,SSW,210,3.0,4.0,14,0.00,,,0.00,Wunderground v.1.15,2013-09-06 23:15:00,
2013-09-06 16:25:00,100.4,42.6,29.59,SSW,207,6.0,10.0,14,0.00,,,0.00,Wunderground v.1.15,2013-09-06 23:25:00,
2013-09-06 16:30:00,100.2,42.4,29.59,SSW,205,5.0,5.0,14,0.00,,,0.00,Wunderground v.1.15,2013-09-06 23:30:00,
2013-09-06 16:35:00,100.4,42.6,29.59,SW,228,4.0,5.0,14,0.00,,,0.00,Wunderground v.1.15,2013-09-06 23:35:00,
2013-09-06 16:40:00,99.9,42.2,29.59,SSW,198,6.0,6.0,14,0.00,,,0.00,Wunderground v.1.15,2013-09-06 23:40:00,
2013-09-06 16:45:00,100.4,42.6,29.58,SW,231,7.0,7.0,14,0.00,,,0.00,Wunderground v.1.15,2013-09-06 23:45:00,
2013-09-06 16:55:00,100.4,44.4,29.58,SSW,198,2.0,4.0,15,0.00,,,0.00,Wunderground v.1.15,2013-09-06 23:55:00,
2013-09-06 17:00:00,100.4,44.4,29.58,SSW,200,1.0,1.0,15,0.00,,,0.00,Wunderground v.1.15,2013-09-07 00:00:00,
2013-09-06 17:05:00,100.4,42.6,29.58,South,182,2.0,13.0,14,0.00,,,0.00,Wunderground v.1.15,2013-09-07 00:05:00,
2013-09-06 17:10:00,99.9,42.2,29.58,SW,217,6.0,10.0,14,0.00,,,0.00,Wunderground v.1.15,2013-09-07 00:10:00,
2013-09-06 17:15:00,99.9,44.0,29.58,SSW,201,7.0,10.0,15,0.00,,,0.00,Wunderground v.1.15,2013-09-07 00:15:00,
2013-09-06 17:20:00,100.2,44.2,29.58,SSW,205,3.0,3.0,15,0.00,,,0.00,Wunderground v.1.15,2013-09-07 00:20:00,
2013-09-06 17:25:00,100.2,42.4,29.58,SSW,200,1.0,5.0,14,0.00,,,0.00,Wunderground v.1.15,2013-09-07 00:25:00,
2013-09-06 17:30:00,99.7,42.0,29.58,SW,218,3.0,5.0,14,0.00,,,0.00,Wunderground v.1.15,2013-09-07 00:30:00,
2013-09-06 17:35:00,99.4,43.6,29.58,South,190,6.0,6.0,15,0.00,,,0.00,Wunderground v.1.15,2013-09-07 00:35:00,
2013-09-06 17:40:00,99.4,43.6,29.58,SSW,207,4.0,4.0,15,0.00,,,0.00,Wunderground v.1.15,2013-09-07 00:40:00,
2013-09-06 17:45:00,99.4,43.6,29.58,South,188,3.0,7.0,15,0.00,,,0.00,Wunderground v.1.15,2013-09-07 00:45:00,
2013-09-06 17:50:00,99.4,43.6,29.58,SSW,200,3.0,5.0,15,0.00,,,0.00,Wunderground v.1.15,2013-09-07 00:50:00,
2013-09-06 17:55:00,99.2,43.4,29.58,South,190,4.0,5.0,15,0.00,,,0.00,Wunderground v.1.15,2013-09-07 00:55:00,
2013-09-06 18:00:00,99.0,43.3,29.57,SSW,210,3.0,4.0,15,0.00,,,0.00,Wunderground v.1.15,2013-09-07 01:00:00,
2013-09-06 18:05:00,98.5,42.9,29.57,South,182,3.0,4.0,15,0.00,,,0.00,Wunderground v.1.15,2013-09-07 01:05:00,
2013-09-06 18:10:00,98.2,42.6,29.57,SW,229,3.0,3.0,15,0.00,,,0.00,Wunderground v.1.15,2013-09-07 01:10:00,
2013-09-06 18:20:00,98.0,42.5,29.57,SSW,195,2.0,5.0,15,0.00,,,0.00,Wunderground v.1.15,2013-09-07 01:20:00,
2013-09-06 18:25:00,97.8,44.0,29.57,SSW,198,3.0,5.0,16,0.00,,,0.00,Wunderground v.1.15,2013-09-07 01:25:00,
2013-09-06 18:30:00,97.5,43.8,29.57,SSE,167,3.0,3.0,16,0.00,,,0.00,Wunderground v.1.15,2013-09-07 01:30:00,
2013-09-06 18:35:00,97.3,43.6,29.57,SSW,194,2.0,3.0,16,0.00,,,0.00,Wunderground v.1.15,2013-09-07 01:35:00,
2013-09-06 18:40:00,97.1,43.4,29.57,South,190,2.0,2.0,16,0.00,,,0.00,Wunderground v.1.15,2013-09-07 01:40:00,
2013-09-06 18:50:00,96.8,43.2,29.58,WSW,246,2.0,2.0,16,0.00,,,0.00,Wunderground v.1.15,2013-09-07 01:50:00,
2013-09-06 18:55:00,96.6,43.0,29.58,SSW,201,3.0,3.0,16,0.00,,,0.00,Wunderground v.1.15,2013-09-07 01:55:00,
2013-09-06 19:00:00,96.1,41.0,29.58,WSW,244,3.0,6.0,15,0.00,,,0.00,Wunderground v.1.15,2013-09-07 02:00:00,
2013-09-06 19:05:00,95.6,40.6,29.58,WSW,249,3.0,11.0,15,0.00,,,0.00,Wunderground v.1.15,2013-09-07 02:05:00,
2013-09-06 19:10:00,94.9,40.0,29.58,SW,228,3.0,3.0,15,0.00,,,0.00,Wunderground v.1.15,2013-09-07 02:10:00,
2013-09-06 19:15:00,94.5,41.4,29.58,WSW,248,3.0,5.0,16,0.00,,,0.00,Wunderground v.1.15,2013-09-07 02:15:00,
2013-09-06 19:20:00,94.0,41.0,29.58,WSW,243,3.0,3.0,16,0.00,,,0.00,Wunderground v.1.15,2013-09-07 02:20:00,
2013-09-06 19:25:00,93.6,40.7,29.58,SW,230,4.0,4.0,16,0.00,,,0.00,Wunderground v.1.15,2013-09-07 02:25:00,
2013-09-06 19:30:00,93.2,40.3,29.59,WSW,251,4.0,4.0,16,0.00,,,0.00,Wunderground v.1.15,2013-09-07 02:30:00,
2013-09-06 19:40:00,92.5,41.3,29.59,SSW,206,2.0,3.0,17,0.00,,,0.00,Wunderground v.1.15,2013-09-07 02:40:00,
2013-09-06 19:45:00,92.3,41.2,29.60,SSW,198,2.0,3.0,17,0.00,,,0.00,Wunderground v.1.15,2013-09-07 02:45:00,
2013-09-06 19:55:00,92.3,41.2,29.60,SSW,209,4.0,6.0,17,0.00,,,0.00,Wunderground v.1.15,2013-09-07 02:55:00,
2013-09-06 20:00:00,92.1,41.0,29.61,SW,216,5.0,5.0,17,0.00,,,0.00,Wunderground v.1.15,2013-09-07 03:00:00,
2013-09-06 20:05:00,92.1,41.0,29.61,SW,230,5.0,6.0,17,0.00,,,0.00,Wunderground v.1.15,2013-09-07 03:05:00,
2013-09-06 20:10:00,91.8,40.8,29.61,SW,214,4.0,7.0,17,0.00,,,0.00,Wunderground v.1.15,2013-09-07 03:10:00,
2013-09-06 20:15:00,91.8,40.8,29.61,SW,218,3.0,7.0,17,0.00,,,0.00,Wunderground v.1.15,2013-09-07 03:15:00,
2013-09-06 20:20:00,91.6,40.6,29.61,South,182,2.0,5.0,17,0.00,,,0.00,Wunderground v.1.15,2013-09-07 03:20:00,
2013-09-06 20:25:00,91.4,41.9,29.61,SSW,202,2.0,5.0,18,0.00,,,0.00,Wunderground v.1.15,2013-09-07 03:25:00,
2013-09-06 20:30:00,91.0,41.6,29.62,SSW,213,2.0,3.0,18,0.00,,,0.00,Wunderground v.1.15,2013-09-07 03:30:00,
2013-09-06 20:35:00,91.2,40.3,29.62,SW,217,3.0,5.0,17,0.00,,,0.00,Wunderground v.1.15,2013-09-07 03:35:00,
2013-09-06 20:40:00,91.0,41.6,29.62,SW,223,4.0,5.0,18,0.00,,,0.00,Wunderground v.1.15,2013-09-07 03:40:00,
2013-09-06 20:45:00,90.5,41.2,29.63,SW,229,3.0,5.0,18,0.00,,,0.00,Wunderground v.1.15,2013-09-07 03:45:00,
2013-09-06 20:50:00,89.9,42.1,29.63,SSW,204,1.0,1.0,19,0.00,,,0.00,Wunderground v.1.15,2013-09-07 03:50:00,
2013-09-06 20:55:00,89.7,42.0,29.63,SSW,213,1.0,1.0,19,0.00,,,0.00,Wunderground v.1.15,2013-09-07 03:55:00,
2013-09-06 21:00:00,89.5,40.4,29.63,SW,223,1.0,1.0,18,0.00,,,0.00,Wunderground v.1.15,2013-09-07 04:00:00,
2013-09-06 21:05:00,89.3,41.6,29.63,SSW,209,1.0,1.0,19,0.00,,,0.00,Wunderground v.1.15,2013-09-07 04:05:00,
2013-09-06 21:10:00,89.0,41.4,29.63,SSW,211,1.0,1.0,19,0.00,,,0.00,Wunderground v.1.15,2013-09-07 04:10:00,
2013-09-06 21:15:00,88.6,42.4,29.63,SW,217,0.0,1.0,20,0.00,,,0.00,Wunderground v.1.15,2013-09-07 04:15:00,
2013-09-06 21:20:00,88.4,42.2,29.63,SW,214,0.0,0.0,20,0.00,,,0.00,Wunderground v.1.15,2013-09-07 04:20:00,
2013-09-06 21:25:00,88.4,42.2,29.63,SSW,203,0.0,0.0,20,0.00,,,0.00,Wunderground v.1.15,2013-09-07 04:25:00,
2013-09-06 21:30:00,88.2,42.1,29.63,SSW,208,0.0,0.0,20,0.00,,,0.00,Wunderground v.1.15,2013-09-07 04:30:00,
2013-09-06 21:35:00,88.0,41.9,29.63,SSW,206,0.0,0.0,20,0.00,,,0.00,Wunderground v.1.15,2013-09-07 04:35:00,
2013-09-06 21:40:00,88.0,40.6,29.63,SSW,199,0.0,0.0,19,0.00,,,0.00,Wunderground v.1.15,2013-09-07 04:40:00,
2013-09-06 21:45:00,88.0,40.6,29.63,SSW,200,0.0,0.0,19,0.00,,,0.00,Wunderground v.1.15,2013-09-07 04:45:00,
2013-09-06 21:50:00,87.8,41.7,29.63,SSW,200,0.0,0.0,20,0.00,,,0.00,Wunderground v.1.15,2013-09-07 04:50:00,
2013-09-06 21:55:00,88.0,40.6,29.63,SSW,207,0.0,0.0,19,0.00,,,0.00,Wunderground v.1.15,2013-09-07 04:55:00,
2013-09-06 22:00:00,88.2,40.7,29.64,SSW,208,1.0,1.0,19,0.00,,,0.00,Wunderground v.1.15,2013-09-07 05:00:00,
2013-09-06 22:05:00,88.2,42.1,29.64,SSW,202,2.0,3.0,20,0.00,,,0.00,Wunderground v.1.15,2013-09-07 05:05:00,
2013-09-06 22:15:00,87.8,41.7,29.64,SSW,211,1.0,1.0,20,0.00,,,0.00,Wunderground v.1.15,2013-09-07 05:15:00,
2013-09-06 22:20:00,87.8,41.7,29.64,SW,229,0.0,0.0,20,0.00,,,0.00,Wunderground v.1.15,2013-09-07 05:20:00,
2013-09-06 22:25:00,87.6,41.6,29.64,SW,217,0.0,0.0,20,0.00,,,0.00,Wunderground v.1.15,2013-09-07 05:25:00,
2013-09-06 22:30:00,87.4,41.4,29.64,SSW,192,0.0,0.0,20,0.00,,,0.00,Wunderground v.1.15,2013-09-07 05:30:00,
2013-09-06 22:35:00,87.2,42.5,29.64,SSW,192,0.0,0.0,21,0.00,,,0.00,Wunderground v.1.15,2013-09-07 05:35:00,
2013-09-06 22:40:00,87.0,42.3,29.64,SSW,192,0.0,0.0,21,0.00,,,0.00,Wunderground v.1.15,2013-09-07 05:40:00,
2013-09-06 22:50:00,86.1,42.8,29.65,SSE,163,0.0,0.0,22,0.00,,,0.00,Wunderground v.1.15,2013-09-07 05:50:00,
2013-09-06 22:55:00,85.9,43.8,29.65,SSE,159,0.0,0.0,23,0.00,,,0.00,Wunderground v.1.15,2013-09-07 05:55:00,
2013-09-06 23:00:00,85.7,43.6,29.66,South,184,0.0,0.0,23,0.00,,,0.00,Wunderground v.1.15,2013-09-07 06:00:00,
2013-09-06 23:05:00,85.5,43.5,29.66,SE,131,0.0,0.0,23,0.00,,,0.00,Wunderground v.1.15,2013-09-07 06:05:00,
2013-09-06 23:10:00,85.3,43.3,29.66,SE,131,0.0,0.0,23,0.00,,,0.00,Wunderground v.1.15,2013-09-07 06:10:00,
2013-09-06 23:15:00,85.1,43.1,29.66,SE,131,0.0,0.0,23,0.00,,,0.00,Wunderground v.1.15,2013-09-07 06:15:00,
2013-09-06 23:25:00,84.9,44.1,29.66,SSW,194,0.0,0.0,24,0.00,,,0.00,Wunderground v.1.15,2013-09-07 06:25:00,
2013-09-06 23:30:00,84.7,42.8,29.66,SSW,194,0.0,0.0,23,0.00,,,0.00,Wunderground v.1.15,2013-09-07 06:30:00,
2013-09-06 23:35:00,84.3,43.6,29.66,SSW,193,0.0,0.0,24,0.00,,,0.00,Wunderground v.1.15,2013-09-07 06:35:00,
2013-09-06 23:40:00,84.3,42.5,29.66,SSE,159,0.0,0.0,23,0.00,,,0.00,Wunderground v.1.15,2013-09-07 06:40:00,
2013-09-06 23:50:00,84.1,42.3,29.66,SSW,203,0.0,0.0,23,0.00,,,0.00,Wunderground v.1.15,2013-09-07 06:50:00,
2013-09-06 23:55:00,84.0,42.2,29.66,SW,232,0.0,0.0,23,0.00,,,0.00,Wunderground v.1.15,2013-09-07 06:55:00,